Location: Champs
(48.8539°N, 2.6040°E)
Time: 05:46:06
(UTC+00:00)

Daily predictions for brighter satellites

Satellite Brightness Start Highest point End
(mag) Time Altitude Azimuth Time Altitude Azimuth Time Altitude Azimuth
Lacrosse 4 Rocket 4.3 00:04:48 10° NW 00:06:21 12° NNW 00:07:54 10° N
Cosmos 1844 Rocket 4.3 00:02:18 10° NW 00:05:29 22° W 00:05:29 22° W
Cosmos 1943 Rocket 3.8 00:01:53 10° NNW 00:06:52 30° NE 00:10:24 17° E
SL-16 R/B 3.7 00:06:04 22° W 00:08:25 30° NW 00:13:23 10° NNE
ATLAS 5 CENTAUR R/B 3.9 00:06:46 10° NNW 00:10:36 26° NNE 00:15:06 10° E
RESURS DK-1 4.4 00:13:30 22° ENE 00:13:30 22° ENE 00:15:17 10° NE
Cosmos 972 Rocket 4.4 00:12:33 54° ENE 00:12:33 54° ENE 00:16:45 10° NNE
Cosmos 1867 3.8 00:10:52 10° NW 00:15:26 59° WNW 00:15:26 59° WNW
NOSS 2-2 (D) 4.2 00:14:15 10° NW 00:18:12 59° NE 00:18:12 59° NE
USA 32 4.2 00:20:05 65° NW 00:20:05 65° NW 00:24:56 10° N
Cosmos 2344 4.1 00:20:28 10° NW 00:28:39 75° NE 00:39:54 10° SE
Tsikada Rocket 3.9 00:30:35 67° WSW 00:31:04 69° WNW 00:37:14 10° N
USA 215 4.1 00:28:35 10° ENE 00:34:07 34° SE 00:34:07 34° SE
Lacrosse 5 3.1 00:35:37 22° WNW 00:38:23 39° NNW 00:43:12 10° NE
NOSS 2-3 (C) 4.4 00:37:36 10° NW 00:43:14 88° SW 00:45:10 51° SE
ATLAS 3B R/B 4.5 00:36:42 10° NW 00:43:44 36° NNE 00:50:50 10° E
NOSS 0 Rocket 4.0 00:45:55 56° SE 00:46:21 58° ESE 00:52:22 10° NE
NOSS 2-3 (D) 4.4 00:42:41 10° NW 00:48:17 87° SW 00:50:19 49° SE
NOSS 3-4 (A) 4.2 00:51:31 30° W 00:53:43 42° NW 00:59:39 10° NE
NOSS 3-4 (C) 4.2 00:51:35 31° W 00:53:45 43° NW 00:59:41 10° NE
Gbstr 26 Del rocket 3.5 00:57:32 58° NNE 00:57:32 58° NNE 01:01:02 10° ENE
H-2A R/B 3.9 00:54:37 10° NNW 00:57:39 22° WNW 00:57:39 22° WNW
Cosmos 2237 Rocket 2.5 00:59:39 50° SE 01:00:02 51° ESE 01:05:33 10° NE
Cosmos 1980 3.9 01:02:36 55° SE 01:03:00 57° ESE 01:08:32 10° NE
IDEFIX/ARIANE 42P 3.6 00:58:16 10° NNE 01:03:02 35° E 01:03:55 33° ESE
NOSS 2-2 (C) 4.5 01:01:47 10° NW 01:04:40 44° WNW 01:04:40 44° WNW
CZ-2D R/B 3.4 01:04:05 10° NNE 01:08:54 32° E 01:10:23 27° SE
USA 267 3.5 01:03:53 10° ESE 01:10:19 68° NNE 01:16:49 10° NW
USA 308 4.5 01:14:03 23° E 01:14:03 23° E 01:15:47 10° ENE
Cosmos 2360 Rocket 4.1 01:10:54 15° WNW 01:13:42 22° NW 01:18:01 10° N
COSMOS 2428 2.9 01:13:37 53° W 01:14:28 59° WNW 01:20:07 10° NNE
Meteor 2-6 Rocket 4.3 01:15:50 62° WSW 01:16:37 70° WNW 01:22:30 10° N
Cosmos 1743 Rocket 4.1 01:12:46 10° N 01:17:00 51° ENE 01:17:16 50° E
Cosmos 2180 Rocket 4.5 01:12:33 10° NNW 01:18:54 69° W 01:19:58 58° SW
Cosmos 1726 3.9 01:16:32 10° N 01:17:56 24° N 01:17:56 24° N
Resurs 1-4 Rocket 3.0 01:15:58 10° NNE 01:20:58 40° E 01:22:16 35° SE
Cosmos 2322 4.4 01:21:01 38° W 01:22:18 44° NW 01:27:48 10° NNE
Cosmos 2219 Rocket 3.6 01:23:12 24° W 01:25:05 29° NW 01:29:56 10° NNE
Cosmos 2221 4.0 01:26:50 26° WNW 01:26:50 26° WNW 01:29:57 10° NNW
IRIDIUM 104 4.2 01:21:22 10° N 01:26:36 70° W 01:26:54 68° WSW
Cosmos 2278 Rocket 2.5 01:27:23 10° NW 01:32:30 47° W 01:32:30 47° W
IRIDIUM 114 4.4 01:30:34 10° N 01:35:43 59° W 01:36:02 57° WSW
USA 290 4.2 01:36:34 10° N 01:39:27 28° ENE 01:40:17 24° E
Cosmos 2333 Rocket 4.3 01:38:15 11° WNW 01:41:48 18° NW 01:45:35 10° N
Meteor 2-10 4.2 01:36:33 10° NNW 01:42:17 88° ENE 01:44:15 44° SSE
COBE Rocket 4.2 01:37:45 10° NNE 01:42:19 56° E 01:43:14 47° SE
Cosmos 1420 Rocket 3.9 01:37:02 10° NNW 01:42:20 86° ENE 01:44:12 42° SSE
Cosmos 1680 Rocket 3.6 01:42:34 52° SSE 01:43:42 67° ESE 01:48:59 10° NNE
ADEOS II 3.0 01:40:17 10° NNE 01:45:15 41° E 01:47:23 28° SSE
RESURS DK-1 3.6 01:49:06 29° WNW 01:49:21 29° NW 01:52:58 10° NNE
Meteor 1-28 Rocket 4.3 01:49:05 30° ESE 01:50:14 39° ENE 01:53:39 10° N
Cosmos 1943 Rocket 2.2 01:45:24 10° NW 01:50:58 58° WSW 01:51:51 52° SSW
ATLAS 2AS CENTAUR R/B 3.0 01:49:36 37° S 01:52:29 61° ESE 01:59:30 10° NE
Nadezhda 4 Rocket 4.0 01:50:48 47° SW 01:52:29 66° WNW 01:58:35 10° N
ATLAS 5 CENTAUR R/B 1.9 01:50:07 10° NW 01:55:00 87° SW 02:01:06 10° SE
Cosmos 1408 Rocket 4.4 01:51:38 10° NNW 01:54:59 35° WNW 01:54:59 35° WNW
Cosmos 2056 Rocket 3.5 01:50:36 10° NNW 01:56:02 88° WSW 01:58:37 32° SSE
Cosmos 1428 Rocket 4.4 01:53:46 42° S 01:56:04 87° WNW 02:02:20 10° N
SL-16 R/B 2.9 01:54:58 31° SSE 01:57:08 45° ESE 02:02:31 10° NE
Sich 1 3.2 01:57:31 10° NNW 02:01:28 52° W 02:01:28 52° W
Cosmos 1340 Rocket 3.2 02:01:32 49° SE 02:02:08 55° E 02:06:00 10° NNE
CZ-2C R/B 2.5 02:00:14 37° S 02:02:29 84° WSW 02:07:49 10° NNW
Meteor 1-27 Rocket 3.7 02:01:01 46° SSW 02:02:45 76° WNW 02:08:23 10° N
GP-B 3.0 01:58:29 10° N 02:02:56 82° E 02:03:57 53° S
GEOS 3 Rocket 3.6 01:59:41 10° SE 02:05:02 90° SSW 02:10:23 10° NW
Okean 1 3.7 02:05:34 45° WNW 02:05:34 45° WNW 02:08:59 10° N
Cosmos 1624 Rocket 3.8 02:00:45 10° NNW 02:05:58 75° WSW 02:08:03 37° S
SL-16 R/B 2.7 02:00:25 11° SSE 02:06:22 73° ENE 02:12:36 10° NNW
ALOS 3.6 02:03:23 10° NNE 02:07:37 34° E 02:10:18 19° SSE
NPP 3.7 02:05:01 10° N 02:10:24 69° WNW 02:12:10 42° SW
NOSS 3-1 (A) 4.3 02:03:31 10° NW 02:10:37 70° NE 02:19:17 10° SE
Cosmos 1340 2.6 02:07:12 10° N 02:10:38 68° ENE 02:10:59 62° ESE
Cosmos 1536 4.4 02:08:40 10° NW 02:10:40 21° WNW 02:10:40 21° WNW
Cosmos 1805 3.0 02:09:12 10° N 02:12:56 88° ENE 02:13:21 69° SSE
Cosmos 1733 3.8 02:10:50 10° NNW 02:13:33 39° WNW 02:13:33 39° WNW
H-2A R/B 4.0 02:13:26 10° N 02:17:17 41° WNW 02:17:40 39° W
USA 215 3.2 02:11:21 10° NE 02:17:55 87° NNW 02:21:28 30° WSW
Cosmos 1805 Rocket 4.2 02:14:19 10° NNW 02:18:06 36° W 02:18:06 36° W
Intercosmos 25 Rocket 4.2 02:15:54 10° N 02:19:50 66° E 02:25:58 10° SSE
Lacrosse 5 3.5 02:17:41 10° WNW 02:22:22 34° N 02:27:02 10° ENE
Cosmos 923 Rocket 4.5 02:20:52 35° WSW 02:22:34 48° WNW 02:27:43 10° NNE
COSMOS 2441 4.3 02:17:43 10° NNE 02:22:38 86° WNW 02:24:30 38° SSW
Cosmos 1666 Rocket 3.5 02:18:40 10° N 02:23:08 89° WSW 02:25:08 32° S
Cosmos 1553 Rocket 4.1 02:17:47 10° N 02:24:03 78° E 02:30:03 11° SSE
Meteor 1-11 Rocket 4.5 02:19:31 10° NNW 02:24:19 31° W 02:25:03 30° WSW
NOSS 3-1 (C) 4.0 02:21:19 10° NW 02:28:34 66° SW 02:37:19 10° SSE
ATLAS 3B R/B 3.1 02:27:40 10° NW 02:35:33 85° NE 02:43:22 10° SE
MSX 4.1 02:30:17 10° N 02:35:53 53° WNW 02:38:35 30° SW
Cosmos 1371 Rocket 4.5 02:33:23 10° NW 02:38:17 40° WSW 02:39:56 31° SW
Cosmos 1656 Rocket 3.5 02:34:30 10° NNW 02:39:57 83° WSW 02:45:22 10° SSE
Cosmos 2026 Rocket 4.2 02:37:38 29° SW 02:40:51 55° WNW 02:47:09 10° N
IDEFIX/ARIANE 42P 3.3 02:37:47 10° N 02:42:34 38° WNW 02:44:41 26° WSW
Cosmos 1328 Rocket 3.5 02:41:11 31° SSW 02:43:18 84° W 02:47:45 10° N
Cosmos 1626 1.9 02:42:31 39° S 02:43:36 74° E 02:46:54 10° NNE
Gbstr 26 Del rocket 3.2 02:39:47 12° WNW 02:43:49 63° N 02:47:37 10° E
USA 308 3.2 02:42:30 29° W 02:44:08 52° NNW 02:47:59 10° ENE
Cosmos 2237 Rocket 3.3 02:41:27 21° W 02:44:20 33° NW 02:49:30 10° NNE
Cosmos 2369 Rocket 2.2 02:38:44 10° NNW 02:44:23 86° ENE 02:49:58 10° SSE
Cosmos 1092 Rocket 4.3 02:42:40 28° SW 02:45:43 50° WNW 02:51:44 10° N
Cosmos 1151 Rocket 3.9 02:47:21 29° WSW 02:48:30 33° WNW 02:52:29 10° N
CZ-2C R/B 3.2 02:43:31 10° N 02:48:46 64° WNW 02:51:58 25° SW
CZ-2D R/B 2.7 02:43:56 10° N 02:49:01 44° WNW 02:51:41 26° WSW
Cosmos 1975 3.1 02:45:46 10° NNW 02:49:27 43° W 02:50:23 35° SW
Cosmos 921 Rocket 3.4 02:48:29 32° WSW 02:50:07 50° WNW 02:54:26 10° NNE
Cosmos 1633 Rocket 3.1 02:48:27 10° NNW 02:52:43 54° W 02:55:02 25° SSW
SAR-Lupe-1 4.0 02:49:08 10° N 02:52:43 66° WNW 02:54:03 35° SW
Cosmos 2297 3.7 02:47:16 10° NNW 02:52:58 65° WSW 02:58:38 10° SSE
USA 267 3.3 02:47:14 10° SSE 02:53:31 51° SW 02:59:51 10° WNW
AQUA 3.9 02:49:28 10° N 02:54:09 61° WNW 02:56:42 26° SW
SAR-Lupe-4 3.7 02:53:23 10° N 02:56:54 55° WNW 02:58:13 33° SW
Resurs 1-4 Rocket 3.0 02:55:57 10° N 03:00:40 34° WNW 03:03:20 21° WSW
Cosmos 1766 3.0 03:00:33 10° NNW 03:04:14 72° W 03:07:19 14° S
Cosmos 494 Rocket 4.0 03:02:00 23° SW 03:05:14 70° WNW 03:10:22 10° NNE
Iridium 51 3.9 03:05:13 17° S 03:07:41 80° E 03:11:09 10° N
Meteor 2-4 Rocket 4.0 03:04:18 22° SW 03:07:44 52° WNW 03:13:17 10° N
Cosmos 1943 3.8 03:03:45 11° S 03:09:03 53° ESE 03:14:36 10° NE
FENGYUN 3A 4.1 03:05:35 10° N 03:10:46 48° WNW 03:14:21 19° SW
Cosmos 1048 Rocket 4.0 03:09:34 18° SSW 03:13:29 80° WNW 03:18:45 10° NNE
USA 290 3.9 03:11:18 10° NW 03:13:01 18° W 03:13:01 18° W
Cosmos 2263 4.1 03:08:21 10° NNW 03:14:00 77° WSW 03:19:39 10° SSE
UNK 4.0 03:10:15 13° S 03:14:07 46° W 03:18:35 10° NNW
Thor Agena Rocket 4.4 03:10:03 10° NNE 03:14:56 47° E 03:19:49 10° S
CZ-2C R/B 3.0 03:15:37 10° NNE 03:20:45 60° E 03:25:46 10° S
H-2A R/B 4.4 03:18:09 10° NE 03:22:08 22° E 03:26:09 10° SE
ADEOS II 3.0 03:20:08 10° N 03:24:46 33° WNW 03:28:17 16° WSW
USA 306 4.5 03:22:03 10° S 03:24:55 21° SE 03:27:38 10° E
EO 1 Delta rocket 4.2 03:21:52 10° N 03:26:18 48° WNW 03:30:33 13° SW
Cosmos 468 4.5 03:23:30 13° SSW 03:28:10 81° WNW 03:33:27 10° NNE
Cosmos 883 Rocket 4.5 03:22:01 10° N 03:28:11 87° W 03:34:19 10° S
Cosmos 1707 2.7 03:27:44 10° S 03:31:25 77° E 03:35:06 10° NNE
Cosmos 1302 Rocket 4.1 03:27:16 10° NNW 03:32:30 80° ENE 03:37:41 10° SSE
IRS-1D 4.0 03:27:51 10° NNE 03:33:00 66° ESE 03:38:13 10° S
CZ-4 R/B 3.8 03:29:16 10° N 03:33:58 72° WNW 03:38:34 10° SSW
Cosmos 1842 3.1 03:32:03 10° SSW 03:35:44 69° W 03:39:29 10° N
Cosmos 1110 Rocket 4.3 03:30:54 10° NW 03:35:54 44° WSW 03:40:55 10° S
YAOGAN 6 2.5 03:35:09 10° NNE 03:38:27 75° E 03:41:46 10° S
ATLAS 5 CENTAUR R/B 3.5 03:35:01 10° WNW 03:38:39 19° WSW 03:42:44 10° SSW
Cosmos 2266 Rocket 4.0 03:33:02 10° SSW 03:39:01 66° WNW 03:45:03 10° N
Cosmos 1603 4.2 03:35:28 10° S 03:40:58 61° ESE 03:46:33 10° NE
SL-16 R/B 3.1 03:36:50 13° WSW 03:41:22 36° NW 03:46:37 10° NNE
S3M 4.1 03:35:45 10° NNW 03:41:45 54° W 03:47:49 10° SSW
SL-08 ROCKET BODY 4.4 03:36:38 10° SSW 03:42:35 71° W 03:48:41 10° N
CZ-2C R/B 4.4 03:41:42 11° WSW 03:43:31 13° W 03:46:01 10° WNW
ATLAS 2AS CENTAUR R/B 3.5 03:37:01 11° WSW 03:43:44 45° NW 03:50:28 10° NE
Cosmos 1452 Rocket 4.1 03:39:29 10° NW 03:44:17 36° WSW 03:49:02 10° SSW
Cosmos 1515 Rocket 4.1 03:40:24 11° SW 03:44:24 43° WNW 03:48:39 10° N
ALOS 3.2 03:40:42 10° N 03:44:47 32° WNW 03:48:37 11° SW
Cosmos 1869 Rocket 3.5 03:42:39 10° NNW 03:46:59 76° W 03:51:17 10° S
Envisat 3.1 03:44:38 10° N 03:49:40 62° WNW 03:54:40 10° SSW
SL-16 R/B 3.7 03:45:48 10° SW 03:50:33 23° W 03:55:19 10° NW
USA 215 4.0 03:54:23 10° ENE 04:00:38 49° NNW 04:06:51 10° W
Cosmos 2228 Rocket 3.6 03:59:37 10° S 04:03:57 62° E 04:08:17 10° NNE
Meteor 1-22 Rocket 4.1 03:59:10 10° NNW 04:04:45 79° W 04:10:05 10° S
Cosmos 1674 3.5 04:02:23 10° SW 04:05:23 28° WNW 04:08:24 10° NNW
Lacrosse 5 2.4 04:00:56 10° NW 04:06:03 66° NNE 04:11:08 10° ESE
Meteor 1-13 Rocket 4.4 04:02:44 10° SSW 04:08:30 70° WNW 04:14:25 10° N
CZ-3 R/B 4.3 03:51:44 10° SW 04:10:32 26° S 04:18:08 10° SE
USA 229 DEB 4.0 04:04:06 10° NW 04:11:29 68° SW 04:19:28 10° SSE
USA 229 4.0 04:04:12 10° NW 04:11:35 69° SW 04:19:33 10° SSE
